Home > Weather > Salalah > Past weeks

Flag for Oman Past Weather in Salalah, Oman — Yesterday and Last 2 Weeks

Now
81 °F

Cloudy.


Feels Like: 87 °F
Forecast: 82 / 87 °F
Wind: 6 mph from South

Location: Salalah Airport

Current Time: Jun 25, 2016 at 9:17:03 AM

Latest Report: Jun 25, 2016 at 7:50 AM


Visibility: 3 mi

Pressure: 29.65 "Hg

Humidity: 89%

Dew Point: 77 °F

Location of SalalahLocation

Past Weather in Salalah — Graph

°F

Salalah Temperature Yesterday

Maximum temperature yesterday: 82 °F (at 12:50 AM)
Minimum temperature yesterday: 81 °F (at 2:50 AM)
Average temperature yesterday: 81 °F

High & Low Weather Summary for the Past Weeks

 TemperatureHumidityPressure
High91 °F (Jun 10, 12:50 PM)100% (Jun 22, 8:50 PM)29.83 "Hg (Jun 22, 8:50 PM)
Low79 °F (Jun 22, 8:50 PM)63% (Jun 10, 9:50 AM)29.50 "Hg (Jun 16, 2:50 PM)
Average85 °F83%29.65 "Hg
* Reported Jun 10 7:50 AM — Jun 25 7:50 AM, Salalah, Weather by CustomWeather, © 2016

Note: Actual official high and low records may vary slightly from our data, if they occured in-between our weather recording intervals... More about our weather records

Advertising

Salalah Weather History for the Previous 24 Hours

Scroll right to see more
 ConditionsComfort  
Time TempWeatherWind HumidityBarometerVisibility
7:50 AM
Sat, Jun 25
81 °FCloudy.6 mph89%29.65 "Hg3 mi
6:50 AM81 °FMore clouds than sun.6 mph89%29.62 "Hg4 mi
5:50 AM81 °FMostly cloudy.7 mph89%29.62 "Hg4 mi
4:50 AM81 °FDrizzle. Mostly cloudy.6 mph89%29.62 "Hg4 mi
3:50 AM81 °FMostly cloudy.7 mph89%29.59 "Hg5 mi
2:50 AM81 °FMostly cloudy.8 mph89%29.59 "Hg5 mi
1:50 AM81 °FMostly cloudy.5 mph89%29.62 "Hg4 mi
12:50 AM81 °FMostly cloudy.7 mph89%29.62 "Hg6 mi
11:50 PM
Fri, Jun 24
81 °FMostly cloudy.6 mph89%29.65 "Hg5 mi
10:50 PM81 °FMostly cloudy.6 mph89%29.65 "Hg5 mi
9:50 PM81 °FMostly cloudy.8 mph89%29.62 "Hg4 mi
8:50 PM81 °FMostly cloudy.8 mph89%29.62 "Hg4 mi
7:50 PM81 °FMostly cloudy.9 mph89%29.59 "Hg4 mi
6:50 PM81 °FMore clouds than sun.12 mph89%29.56 "Hg4 mi
5:50 PM82 °FMostly cloudy.12 mph84%29.56 "Hg4 mi
4:50 PM82 °FMore clouds than sun.13 mph89%29.53 "Hg4 mi
3:50 PM82 °FBroken clouds.13 mph84%29.53 "Hg5 mi
2:50 PM82 °FMore clouds than sun.13 mph84%29.56 "Hg4 mi
1:50 PM82 °FMostly cloudy.12 mph84%29.56 "Hg5 mi
12:50 PM82 °FMostly cloudy.13 mph84%29.59 "Hg4 mi
11:50 AM82 °FBroken clouds.10 mph89%29.59 "Hg4 mi
10:50 AM81 °FDrizzle. Mostly cloudy.8 mph94%29.62 "Hg2 mi
9:50 AM81 °FDrizzle. Mostly cloudy.7 mph94%29.62 "Hg3 mi
Weather by CustomWeather, © 2016

See weather overviewHow to use our weather pages